Home > Time Zones > World Clock > Weather > Norway > Ås > Past weeks

Flag for Norway Weather past 2 weeks in Ås, Norway

Now
55 °F

Fog.


Feels Like: 54 °F
Forecast: 67 / 83 °F
Wind: 7 mph from Northeast

Location: Oslo / Fornebu

Current Time: Jul 23, 2014 at 7:36:10 AM

Latest Report: Jul 23, 2014 at 6:50 AM


Visibility: 0 mi

Pressure: 30.39 "Hg

Humidity: 100%

Dew point: 55 °F

Location of ÅsLocation

Historic Weather in Ås — Graph

°F

Ås temperature yesterday

Maximum temperature yesterday: 66 °F (at 2:20 AM)
Minimum temperature yesterday: 59 °F (at 9:50 AM)
Average temperature yesterday: 62 °F

Past Weeks' High & Low Weather Summary

 TemperatureHumidityPressure
High75 °F (Jul 20, 2:20 PM)100% (Jul 8, 6:20 AM)30.39 "Hg (Jul 8, 6:20 AM)
Low52 °F (Jul 10, 4:50 AM)47% (Jul 21, 12:20 AM)29.65 "Hg (Jul 15, 9:20 AM)
Average59 °F86%30.02 "Hg
* Reported Jul 8 6:20 AM — Jul 23 6:20 AM, Ås, Weather by CustomWeather, © 2014

Note: Actual official high and low records may vary slightly from our data, if they occured in-between our weather recording intervals... More about our weather records

Advertising

Ås weather history for previous 24 hours

 ConditionsComfort  
Time TempWeatherWind HumidityBarometerVisibility
6:20 AM
Jul 23
55 °FFog.6 mph100%30.39 "Hg0 mi
5:50 AM55 °FFog.8 mph100%30.39 "Hg0 mi
5:20 AM55 °FFog.7 mph100%30.39 "Hg0 mi
4:50 AM55 °FFog.7 mph100%30.39 "Hg0 mi
4:20 AM55 °FFog.7 mph100%30.39 "Hg0 mi
3:50 AM55 °FFog.8 mph100%30.39 "Hg1 mi
3:20 AM55 °FFog.7 mph100%30.39 "Hg0 mi
2:50 AM57 °FSprinkles. Fog.7 mph100%30.39 "Hg1 mi
2:20 AM57 °FFog.5 mph100%30.39 "Hg1 mi
1:50 AM57 °FSprinkles. Fog.3 mph100%30.39 "Hg0 mi
6:50 PM
Jul 22
59 °FFog.9 mph100%30.33 "Hg0 mi
6:20 PM59 °FFog.9 mph100%30.33 "Hg0 mi
5:50 PM59 °FDrizzle. Fog.8 mph100%30.33 "Hg0 mi
5:20 PM59 °FFog.9 mph100%30.33 "Hg0 mi
4:50 PM59 °FFog.9 mph100%30.30 "Hg1 mi
4:20 PM59 °FFog.8 mph100%30.30 "Hg1 mi
3:50 PM61 °FFog.7 mph94%30.30 "Hg0 mi
3:20 PM61 °FFog.6 mph94%30.30 "Hg0 mi
2:50 PM61 °FFog.7 mph94%30.30 "Hg1 mi
2:20 PM61 °FFog.12 mph100%30.30 "Hg1 mi
1:50 PM61 °FFog.10 mph94%30.27 "Hg2 mi
1:20 PM61 °FLight rain. Fog.9 mph100%30.27 "Hg0 mi
12:50 PM61 °FLight rain. Fog.9 mph100%30.27 "Hg0 mi
12:20 PM61 °FLight rain. Fog.13 mph100%30.27 "Hg0 mi
11:50 AM59 °FLight rain. Fog.12 mph100%30.27 "Hg0 mi
11:20 AM59 °FLight rain. Fog.9 mph100%30.27 "Hg0 mi
10:50 AM59 °FLight rain. Fog.10 mph100%30.24 "Hg0 mi
10:20 AM59 °FLight rain. Fog.9 mph100%30.24 "Hg0 mi
9:50 AM59 °FLight rain. Fog.10 mph100%30.24 "Hg0 mi
9:20 AM61 °FLight rain. Fog.13 mph94%30.24 "Hg0 mi
8:50 AM61 °FFog.12 mph94%30.24 "Hg0 mi
8:20 AM61 °FFog.13 mph94%30.24 "Hg0 mi
7:50 AM63 °FMild.14 mph88%30.21 "HgN/A
7:20 AM63 °FMild.15 mph88%30.21 "HgN/A
Weather by CustomWeather, © 2014

See weather overviewHow to use our weather pages